Location: Antichan
(42.9728°N, 0.6667°E)
Time: 18:04:44
(UTC+00:00)

Meteor 2-4 Rocket - Pass Details

Date: 15 August 2020
Orbit: 798 x 909 km, 81.2° (Epoch: 17 September)

Event Time Altitude Azimuth Distance (km) Brightness Sun altitude
Rises 21:35:25 0° 347° (NNW) 3,424 7.9 -24.2°
Reaches altitude 10° 21:37:53 10° 346° (NNW) 2,467 7.0 -24.5°
Maximum altitude 21:43:26 72° 263° (W) 866 3.7 -25.1°
Enters shadow 21:44:31 56° 201° (SSW) 975 3.8 -25.2°
